Location: Hamburg
(53.5554°N, 9.9941°E)
Time: 04:29:21
(UTC+02:00)

ISS - Pass Details

Date: 14 May 2021
Orbit: 417 x 422 km, 51.6° (Epoch: 15 June)

Event Time Altitude Azimuth Distance (km) Brightness Sun altitude
Rises 04:25:35 0° 279° (W) 2,376 -0.3 -7.1°
Reaches altitude 10° 04:27:58 10° 264° (W) 1,509 -1.4 -6.9°
Maximum altitude 04:30:41 22° 211° (SSW) 967 -2.5 -6.6°
Drops below altitude 10° 04:33:23 10° 158° (SSE) 1,505 -1.1 -6.3°
Sets 04:35:45 0° 142° (SE) 2,367 0.0 -6.1°
